Location: Caltech
(34.1382°N, 118.1253°W)
Time: 16:36:07
(UTC-07:00)

RS-15 - Visible Passes

Search period start: 22 August 2014 00:00
Search period end: 01 September 2014 00:00
Orbit: 1900 x 2145 km, 64.8° (Epoch: 21 August)

Date Brightness Start Highest point End Pass type
(mag) Time Alt. Az. Time Alt. Az. Time Alt. Az.
22 Aug 9.0 19:58:17 10° NW 20:08:43 48° WSW 20:19:36 10° S visible
24 Aug 10.1 21:01:55 10° WNW 21:07:43 16° W 21:13:39 10° SW visible
25 Aug 10.0 20:24:05 10° NW 20:32:11 24° WSW 20:40:34 10° SSW visible
26 Aug 9.7 19:47:05 10° NW 19:56:34 33° WSW 20:06:25 10° SSW visible
29 Aug 10.3 20:14:30 10° WNW 20:19:48 15° W 20:25:14 10° SW visible
30 Aug 10.2 19:36:26 10° WNW 19:44:17 22° WSW 19:52:23 10° SSW visible
31 Aug 10.4 05:36:06 10° SE 05:40:41 13° E 05:45:12 10° ENE visible
